This demonstration page uses our WeatherBlox Daily Observations layout. Learn more.

Left ArrowRight Arrow

39.12711, -84.51439

Hourly Observations for November 29, 2022

Temp ( °F °C ) Dew Point ( °F °C ) Humidity (%) Winds ( mph kmh ) Pressure ( in mb ) Visibility ( mi km ) Precip ( " mm )
12:53 am 00:53 Cloudy with Mist and Fog 45 7.2 42 5.6 90 90 SSW 5 7 30.05 1018 4 6 0.00 0.00
1:53 am 01:53 Cloudy with Mist and Fog 45 7.2 42 5.6 90 90 Calm 30.05 1018 4 6 0.00 0.00
2:53 am 02:53 Cloudy with Mist and Fog 46 7.8 42 5.6 86 86 Calm 30.06 1018 4 6 0.00 0.00
3:53 am 03:53 Cloudy with Mist and Fog 45 7.2 42 5.6 90 90 Calm 30.06 1018 4 6 0.00 0.00
4:53 am 04:53 Clear with Mist and Fog 43 6.1 42 5.6 97 97 Calm 30.06 1018 3 5 0.00 0.00
5:53 am 05:53 Clear with Mist and Fog 41 5 39 3.9 93 93 Calm 30.06 1018 4 6 0.00 0.00
6:34 am 06:34 Clear with Mist and Fog 40 4.4 38 3.3 93 93 Calm 30.08 1019 3 4 0.00 0.00
6:43 am 06:43 Clear with Mist and Fog 41 5 39 3.9 93 93 Calm 30.08 1019 5 8 0.00 0.00
6:53 am 06:53 Clear with Mist and Fog 42 5.6 40 4.4 92 92 SW 3 6 30.07 1018 5 8 0.00 0.00
7:53 am 07:53 Sunny with Mist and Fog 42 5.6 40 4.4 92 92 SW 3 6 30.07 1018 5 8 0.00 0.00
8:53 am 08:53 Sunny with Mist and Fog 45 7.2 41 5 86 86 VRB 3 6 30.06 1018 6 10 0.00 0.00
9:53 am 09:53 Sunny 48 8.9 42 5.6 80 80 S 7 11 30.06 1018 9 14 0.00 0.00
10:53 am 10:53 Sunny 53 11.7 43 6.1 68 68 SSE 10 17 30.03 1017 10 16 0.00 0.00
11:53 am 11:53 Sunny 57 13.9 44 6.7 62 62 S 12 19 29.99 1016 10 16 0.00 0.00
12:53 pm 12:53 Sunny 60 15.6 45 7.2 57 57 S 15 24 29.94 1014 10 16 0.00 0.00
1:53 pm 13:53 Sunny 61 16.1 45 7.2 56 56 S 12 19 29.88 1012 10 16 0.00 0.00
2:53 pm 14:53 Sunny 60 15.6 46 7.8 60 60 SSE 12 19 29.87 1011 10 16 0.00 0.00
3:53 pm 15:53 Sunny 60 15.6 46 7.8 60 60 S 9 15 29.87 1011 10 16 0.00 0.00
4:53 pm 16:53 Mostly Cloudy 60 15.6 45 7.2 57 57 S 10 17 29.86 1011 10 16 0.00 0.00
5:53 pm 17:53 Mostly Cloudy 60 15.6 43 6.1 53 53 SSE 8 13 29.82 1010 10 16 0.00 0.00
6:53 pm 18:53 Mostly Clear 57 13.9 43 6.1 59 59 S 5 7 29.80 1009 10 16 0.00 0.00
7:53 pm 19:53 Partly Cloudy 58 14.4 42 5.6 55 55 S 12 19 29.76 1008 10 16 0.00 0.00
8:53 pm 20:53 Partly Cloudy 59 15 43 6.1 55 55 S 13 20 29.74 1007 10 16 0.00 0.00
9:53 pm 21:53 Cloudy 60 15.6 45 7.2 57 57 S 16 26 29.73 1007 10 16 0.01 0.13
10:39 pm 22:39 Cloudy with Nearby Thunderstorms 56 13.3 49 9.4 77 77 SW 13 20 29.74 1007 3 4 0.05 1.27
10:45 pm 22:45 Cloudy with Nearby Thunderstorms 55 12.8 50 10 83 83 S 13 20 29.74 1007 4 6 0.06 1.52
10:53 pm 22:53 Cloudy with Nearby Thunderstorms 55 12.8 51 10.6 86 86 SSW 12 19 29.73 1007 10 16 0.06 1.52
11:00 pm 23:00 Cloudy with Light Rain 55 12.8 51 10.6 86 86 S 9 15 29.73 1007 4 6 0.01 0.25
11:21 pm 23:21 Cloudy with Light Rain 54 12.2 52 11.1 93 93 undefined N/A 29.74 1007 2 3 0.04 1.02
11:34 pm 23:34 Cloudy with Nearby Thunderstorms 53 11.7 53 11.7 100 100 undefined N/A 29.75 1008 1 2 0.15 3.81
11:41 pm 23:41 Cloudy with Nearby Thunderstorms 53 11.7 53 11.7 100 100 undefined N/A 29.75 1008 1 1 0.22 5.59
11:50 pm 23:50 Cloudy with Heavy Rain 54 12 54 12 100 100 S 5 7 29.74 1007 1 2 0.26 6.60
11:53 pm 23:53 Cloudy with Rain 53 11.7 53 11.7 100 100 SSE 5 7 29.73 1007 1 2 0.27 6.86

Powered by AerisWeather